Regional Weather Roundup
Issued by NWS Charleston, SC

Current Version | Previous Version | Graphics & Text | Print | Product List | Glossary On
Versions: 1 2 3 4 5 6 7 8 9 10 11 12 13 14 15 16 17 18 19 20 21 22 23 24 25 26 27 28 29 30 31 32 33 34 35 36 37 38 39 40 41 42 43 44 45 46 47 48 49 50
000
ASUS42 KCHS 192010
RWRCHS
REGIONAL WEATHER ROUNDUP
NATIONAL WEATHER SERVICE CHARLESTON SC
300 PM EST FRI DEC 19 2014

NOTE: "FAIR" INDICATES FEW OR NO CLOUDS BELOW 12,000 FEET WITH NO
SIGNIFICANT WEATHER AND/OR OBSTRUCTIONS TO VISIBILITY.

NOT ALL STATIONS ARE QUALITY CONTROLLED BY THE NATIONAL
WEATHER SERVICE. USE DATA WITH CAUTION...ESPECIALLY
DEWPOINT OBSERVATIONS.

SCZ027-030-031-034>040-042>050-192100-
...SOUTHEAST SOUTH CAROLINA...

CITY           SKY/WX    TMP DP  RH WIND       PRES   REMARKS
N CHARLESTON   PTSUNNY   61  44  53 SE6       30.10S
WATERFRONT PRK   N/A     61 N/A N/A E8          N/A
MOUNT PLEASANT LGT RAIN  59  45  58 E3        30.10F
PINOPOLIS        N/A     59  50  72 NW5       30.00F
MONCKS CORNER  FAIR      63  46  55 CALM      30.09S
SUMMERVILLE    NOT AVBL
BEAUFORT MCAS  PTSUNNY   63  42  46 SE3       30.09F
BEAUFORT ARPT  FAIR      61  46  59 CALM      30.09F
HILTON HEAD IS MOSUNNY   61  45  55 CALM      30.11S
WALTERBORO     CLEAR     63  36  36 SE6       30.10S
ALLENDALE      FAIR      61  41  48 CALM      30.09S

...SOUTHERN MIDLANDS AND PEE DEE...

CITY           SKY/WX    TMP DP  RH WIND       PRES   REMARKS
GEORGETOWN     NOT AVBL
KINGSTREE      NOT AVBL
ORANGEBURG     SUNNY     60  40  47 S3        30.10R
BARNWELL       FAIR      64  41  42 CALM      30.09F
AIKEN          FAIR      61  39  44 SE5       30.11F
MANNING        NOT AVBL
COLUMBIA       MOSUNNY   61  37  41 CALM      30.10R
SUMTER         SUNNY     60  33  36 NE3       30.09S
FLORENCE       SUNNY     60  30  32 CALM      30.10F
MYRTLE BEACH   NOT AVBL
N MYRTLE BEACH SUNNY     56  35  45 S7        30.11R

$$

GAZ063-065-086>088-099>101-113>116-118-119-134>141-150-192100-
...SOUTHEAST GEORGIA...

CITY           SKY/WX    TMP DP  RH WIND       PRES   REMARKS
SAVANNAH ARPT  PTSUNNY   63  38  39 W5        30.11S
HUNTER AAF     MOSUNNY   63  42  45 W5        30.08S
FORT STEWART   CLOUDY    62  42  47 W1        30.09F
STATESBORO     MOSUNNY   61  42  50 CALM      30.09F
SYLVANIA       PTCLDY    61  43  52 CALM      30.10S
CLAXTON        FAIR      61  43  51 SW3       30.10F

...CSRA...CENTRAL AND FAR SOUTHEAST GEORGIA...

CITY           SKY/WX    TMP DP  RH WIND       PRES   REMARKS
THOMSON        MOSUNNY   63  42  46 CALM      30.13S
AUGUSTA-BUSH   SUNNY     62  37  39 S3        30.07F
AUGUSTA-DANIEL SUNNY     63  37  38 VRB3      30.08F
SWAINSBORO     FAIR      61  43  51 CALM      30.09F
VIDALIA        CLOUDY    61  43  51 CALM      30.09F
EASTMAN        FAIR      60  42  51 CALM      30.12S
HAZLEHURST     FAIR      60  44  55 CALM      30.09F
ALMA           MOSUNNY   64  34  32 CALM      30.09F
WAYCROSS       SUNNY     68  38  32 NW3       30.10S
JESUP          FAIR      68  39  34 NW5       30.10S
BAXLEY         FAIR      63  41  45 CALM      30.09F
BRUNSWICK      SUNNY     68  34  28 CALM      30.11S
SAINT SIMONS   SUNNY     65  41  41 CALM      30.10S

$$

SCZ027-028-034-036>038-045-046-048>050-GAZ119-141-192100-
...LAKE AND SUPPLEMENTAL COASTAL OBSERVATIONS...

STATION/POSITION TIME  TEMP    WIND        PRES    WAVE   SWELL
                       AIR SEA DIR/SP/G            HT/PER HT/PER/DIR
                 (UTC) (F)     (DEG/KT/KT) (MB)    (FT/S) (FT/S/D)
UPR LAKE MARION  NOT AVBL
WINYAH BAY       1900   53      60/  8     1019.0S
LAKE MURRAY      1900   59     190/  3/  4 1018.6F
ACE BASIN NERRS  1900   60      60/  1     1019.0S
FORT PULASKI     2000   60 56   80/  4/  6 1019.6S
SAPELO ISLAND    1900   63     260/  4     1019.0S

$$

ANZ835-935-AMZ111-154-330-350-352-354-370-450-454-472-192100-
...C-MAN AND BUOY OBSERVATIONS...

STATION/POSITION TIME  TEMP    WIND        PRES    WAVE   SWELL
                       AIR SEA DIR/SP/G            HT/PER HT/PER/DIR
                 (UTC) (F)     (DEG/KT/KT) (MB)    (FT/S) (FT/S/D)
BUOY 41004       2000   62 68   40/  6/  8 1018.6S   2/10   2/10
BUOY 41008       1900   56 58  350/  4/  6 1019.1F   1/11   2/ 90/11
FOLLY BEACH CMAN 1900   56      60/ 11/ 11 1019.8F
CAPERS NEARSHORE 1900   55      70/ 12/ 14   N/A
FRIPP NEARSHORE  NOT AVBL


STATION/POSITION TIME  TEMP    WIND        PRES    WAVE   SWELL
                       AIR SEA DIR/SP/G            HT/PER HT/PER/DIR
                 (UTC) (F)     (DEG/KT/KT) (MB)    (FT/S) (FT/S/D)
5E ST. MARYS GA  2000      62                N/A     1/ 9
FRYING PAN BUOY  2000   55 64   20/  6/  8 1020.3R   2/ 9   2/ 60/ 9
BUOY 41025       2000   48                 1020.0R   3/ 8
CAPE LOOKOUT NC  1900   51      30/  6/  7 1019.3F
BUOY 41002       1942   67 73  360/  8/ 10 1017.9F   3/ 8   3/ 30/ 8
BUOY 41010       2000   71 76   10/  4/  6 1018.2F   2/11   2/110/11
ST AUGUSTINE FL  2000   62      10/  5/  5 1019.4S


$$


USA.gov is the U.S. government's official web portal to all federal, state and local government web resources and services.